Location: Commenchon
(49.6411°N, 3.1571°E)
Time: 11:47:02
(UTC+00:00)

Cosmos 1707 - Pass Details

Date: 15 May 2026
Orbit: 333 x 335 km, 82.5° (Epoch: 9 June)

Event Time Altitude Azimuth Distance (km) Brightness Sun altitude
Exits shadow 20:58:00 - 82° (E) 1,464 4.7 -12.2°
Enters shadow 21:54:50 -67° 191° (S) 12,109 9.6 -17.2°
Maximum altitude 22:29:34 51° 282° (WNW) 458 2.5 -19.4°
